Tracking 19976 objects as of 15-Nov-2019
Live streaming from Space Station
objects crossing your sky now
Track the group of recently launched Starlink satellites

COSMOS 1275 DEB

Track COSMOS 1275 DEB now!
10-day predictions


NORAD ID: 15780
Int'l Code: 1981-053KH
Perigee: 894.8 km
Apogee: 976.7 km
Inclination: 82.8 °
Period: 103.6 minutes
Semi major axis: 7306 km
RCS: 0.022 m2 (small)
Launch date: June 4, 1981
Source: Commonwealth of Independent States (former USSR) (CIS)
Launch site: PLESETSK MISSILE AND SPACE COMPLEX (PKMTR)

Note: This is SATELLITE DEBRIS
aabbcc
Your satellite tracking list
Your tracking list is empty




NASA's NSSDC Master Catalog

Two Line Element Set (TLE):
1 15780U 81053KE  19318.43927703  .00000321  00000-0  24455-3 0  9994
2 15780  82.8159 319.0934 0056060 194.4111 295.9821 13.89994998745598
Source of the keplerian elements: AFSPC